Terug naar catalogus

FENGYUN 1C DEB

ActiefPO
NORAD 29933·DEBRIS·🇨🇳 China

Gelanceerd May 10, 1999 vanaf Taiyuan Satellite Launch Center

Loading…

Volgende Passages (komende 24 uur)

TLE

VersSource: Space-Track

Epoch: Sep 14, 2026, 14:41 UTC

1 29933U 99025JF  26257.61209199  .00013014  00000-0  19295-2 0  9997
2 29933  98.7557  26.1474 0006266 192.2369 296.5978 14.75221741 25608

Volg FENGYUN 1C DEB in realtime met AllMySat

Download on the App Store